GACFB EGPO-EGEI

Flight info

Callsign GACFB
Flight time N/A
Altitude 5000
Route 5810N00619W DCT 5719N00552W DCT 5717N00544W DCT 5715N00549W
Aircraft C172/L-SDFG/C

Departure

Time N/A
Airport Stornoway Airport (EGPO)

Arrival

Time 2026-05-06 18:07
Airport Broadford Airstrip (EGEI)
Time Latitude Longitude Altitude Speed Heading
2026-05-06 17:55 57.53387 -5.98029 2223 ft 122 kts 164°
2026-05-06 17:55 57.52573 -5.97605 2124 ft 122 kts 164°
2026-05-06 17:55 57.51754 -5.97179 2027 ft 122 kts 164°
2026-05-06 17:56 57.50934 -5.96750 2002 ft 121 kts 164°
2026-05-06 17:56 57.50128 -5.96329 2000 ft 121 kts 164°
2026-05-06 17:56 57.49313 -5.95905 2000 ft 122 kts 164°
2026-05-06 17:56 57.48493 -5.95478 2000 ft 122 kts 164°
2026-05-06 17:57 57.47678 -5.95054 2000 ft 122 kts 164°
2026-05-06 17:57 57.46860 -5.94629 2000 ft 122 kts 164°
2026-05-06 17:57 57.46051 -5.94209 1999 ft 122 kts 164°
2026-05-06 17:57 57.45232 -5.93784 1999 ft 122 kts 164°
2026-05-06 17:58 57.44419 -5.93362 1999 ft 122 kts 164°
2026-05-06 17:58 57.43599 -5.92938 1999 ft 122 kts 164°
2026-05-06 17:58 57.42784 -5.92515 1999 ft 122 kts 164°
2026-05-06 17:58 57.41969 -5.92093 1999 ft 122 kts 164°
2026-05-06 17:59 57.41143 -5.91665 1999 ft 122 kts 164°
2026-05-06 17:59 57.40328 -5.91243 2000 ft 122 kts 164°
2026-05-06 17:59 57.39513 -5.90822 1999 ft 122 kts 164°
2026-05-06 17:59 57.38694 -5.90398 1999 ft 122 kts 164°
2026-05-06 18:00 57.37875 -5.89975 1999 ft 122 kts 164°
2026-05-06 18:00 57.37056 -5.89552 1999 ft 122 kts 164°
2026-05-06 18:00 57.36240 -5.89131 1999 ft 122 kts 164°
2026-05-06 18:00 57.35425 -5.88710 1999 ft 122 kts 164°
2026-05-06 18:01 57.34601 -5.88285 1999 ft 122 kts 164°
2026-05-06 18:01 57.33789 -5.87867 1999 ft 122 kts 164°
2026-05-06 18:01 57.32970 -5.87444 2000 ft 122 kts 164°
2026-05-06 18:01 57.32185 -5.86893 1997 ft 122 kts 147°
2026-05-06 18:02 57.31573 -5.85799 1999 ft 122 kts 127°
2026-05-06 18:02 57.31118 -5.84485 1925 ft 123 kts 119°
2026-05-06 18:02 57.30741 -5.83140 1742 ft 108 kts 116°
2026-05-06 18:02 57.30431 -5.81943 1563 ft 101 kts 115°
2026-05-06 18:03 57.30138 -5.80783 1385 ft 97 kts 115°
2026-05-06 18:03 57.29855 -5.79659 1208 ft 95 kts 115°
2026-05-06 18:03 57.29575 -5.78543 1032 ft 95 kts 115°
2026-05-06 18:03 57.29299 -5.77445 860 ft 94 kts 115°
2026-05-06 18:04 57.29023 -5.76343 804 ft 93 kts 114°
2026-05-06 18:04 57.28780 -5.75373 794 ft 81 kts 114°
2026-05-06 18:04 57.28405 -5.74648 764 ft 79 kts 155°
2026-05-06 18:04 57.27865 -5.74600 735 ft 80 kts 198°
2026-05-06 18:05 57.27448 -5.75237 707 ft 78 kts 237°
2026-05-06 18:05 57.27300 -5.76099 759 ft 69 kts 256°
2026-05-06 18:05 57.27114 -5.76893 806 ft 66 kts 244°
2026-05-06 18:05 57.26934 -5.77563 873 ft 52 kts 245°
2026-05-06 18:06 57.26730 -5.78206 744 ft 54 kts 238°
2026-05-06 18:06 57.26525 -5.78843 629 ft 56 kts 242°
2026-05-06 18:06 57.26330 -5.79479 532 ft 56 kts 237°
2026-05-06 18:06 57.26122 -5.80100 421 ft 55 kts 240°
2026-05-06 18:07 57.25936 -5.80772 197 ft 63 kts 242°
2026-05-06 18:07 57.25747 -5.81368 119 ft 52 kts 240°
2026-05-06 18:07 57.25573 -5.81930 56 ft 50 kts 241°
2026-05-06 18:07 57.25416 -5.82445 27 ft 37 kts 239°
2026-05-06 18:08 57.25376 -5.82533 28 ft 9 kts 127°
2026-05-06 18:08 57.25346 -5.82499 27 ft 3 kts 65°
2026-05-06 18:08 57.25355 -5.82471 27 ft 0 kts 59°